Tracking 32214 objects as of 19-Nov-2025
HD Live streaming from Space Station
objects crossing your sky now

COSMOS 374 DEB

Track COSMOS 374 DEB now!
10-day predictions


NORAD ID: 4668
Int'l Code: 1970-089L
Perigee: 604.3 km
Apogee: 2,036.3 km
Inclination: 63.0 °
Period: 111.9 minutes
Semi major axis: 7691 km
RCS: 0.097 m2 (small)
Launch date: October 23, 1970
Source: Commonwealth of Independent States (former USSR) (CIS)
Launch site: TYURATAM MISSILE AND SPACE COMPLEX (TTMTR)

Note: This is SATELLITE DEBRIS
Your satellite tracking list
Your tracking list is empty




NASA's NSSDC Master Catalog

Two Line Element Set (TLE):
1 04668U 70089L   25322.63644419  .00000086  00000-0  98450-4 0  9993
2 04668  62.9833  43.8949 0930905 307.6466  44.3521 12.87072337582523
Source of the keplerian elements: AFSPC